[[{"header":{"parameterUnit":"m.s-1","parameterCategory":1,"la1":30.2991,"la2":30.254,"lo1":-89.0895,"lo2":-89.0444,"dy":0.0017,"dx":0.0017,"nx":28,"ny":28,"refTime":"2023-10-24T09:00:00:Z","depth":0,"parameterNumber":2,"parameterNumberName":"U-component_of_WINDS"},"data":[0,0,0,0,0,0,0,0,0,0,0,0,0,0,0,0,0,0,0,0,0,0,0,0,0,0,0,0,0,0,0,0,0,0,0,0,0,0,0,0,0,0,0,0,0,0,0,0,0,0,0,0,0,0,0,0,0,0,-6.4395,-6.4396,0,-6.4466,-6.4467,-6.4468,-6.4386,-6.4383,-6.438,-6.4377,-6.4447,-6.4451,-6.4456,0,0,0,0,0,0,0,0,0,0,0,0,0,-6.4189,-6.4194,-6.4395,-6.4396,-6.4397,-6.4466,-6.4467,-6.4468,-6.4386,-6.4383,-6.4379,-6.4375,-6.4445,-6.4451,-6.4456,0,0,0,0,0,0,0,0,0,0,0,0,0,-6.4271,-6.4195,-6.4395,-6.4365,-6.4363,-6.4466,-6.4467,-6.4468,-6.4387,-6.4382,-6.4378,-6.4374,-6.4443,-6.445,-6.4457,-6.4593,0,0,-6.4479,-6.4482,0,0,0,0,0,0,0,0,-6.4267,-6.4279,-6.4368,-6.4367,-6.4365,-6.4412,-6.442,-6.451,-6.4388,-6.4378,-6.4377,-6.4371,-6.4439,-6.4446,-6.4469,-6.4596,-6.4599,-6.4479,-6.4484,-6.4487,-6.4489,0,0,0,0,0,0,0,-6.4261,-6.4275,-6.4423,-6.437,-6.4368,-6.4348,-6.4354,-6.4437,-6.4433,-6.4378,-6.4373,-6.4382,-6.4437,-6.4463,-6.447,-6.46,-6.4479,-6.4486,-6.449,-6.4493,-6.4843,-6.4848,0,0,0,0,0,0,-6.4259,-6.4271,-6.4421,-6.4425,-6.4304,-6.4355,-6.4362,-6.4402,-6.4432,-6.4432,-6.4386,-6.4378,-6.4453,-6.4462,-6.4472,-6.4632,-6.4487,-6.4493,-6.4497,-6.4838,-6.4844,-6.485,0,0,0,0,0,0,-6.4255,-6.4273,-6.4418,-6.4347,-6.4364,-6.4363,-6.4408,-6.4406,-6.4431,-6.4438,-6.4437,-6.4413,-6.445,-6.4463,-6.4564,-6.4634,-6.4497,-6.4503,-6.4832,-6.484,-6.4847,-6.4954,0,0,0,0,0,0,-6.425,-6.4272,-6.4323,-6.4349,-6.4368,-6.4508,-6.4413,-6.441,-6.4444,-6.4434,-6.4463,-6.4463,-6.4447,-6.4554,-6.4571,-6.4641,-6.4509,-6.4826,-6.4836,-6.4845,-6.4944,-6.4965,-6.4982,0,0,0,0,0,-6.4242,-6.435,-6.4326,-6.4345,-6.4432,-6.4512,-6.4523,-6.4503,-6.445,-6.4501,-6.4506,-6.4462,-6.4625,-6.4565,-6.4583,-6.4657,-6.4821,-6.4833,-6.4844,-6.4936,-6.4961,-6.4981,0,0,0,0,0,0,-6.4331,-6.4352,-6.4326,-6.4445,-6.4478,-6.4498,-6.4562,-6.453,-6.4577,-6.4566,-6.4539,-6.4547,-6.4654,-6.4666,-6.4599,-6.4791,-6.4714,-6.473,-6.4778,-6.4801,-6.482,-6.4812,-6.4514,0,0,0,0,0,-6.4365,-6.4429,-6.4444,-6.4548,-6.4566,-6.4562,-6.4596,-6.4579,-6.4611,-6.4624,-6.4636,-6.4668,-6.4727,-6.4765,-6.4819,-6.4948,-6.4952,-6.5008,-6.5027,-6.5042,-6.5054,-6.5123,-6.5148,-6.4887,-6.4887,-6.4887,0,0,-6.4434,-6.4454,-6.4495,-6.4566,-6.4589,-6.4656,-6.4573,-6.4647,-6.4696,-6.4634,-6.473,-6.4742,-6.4776,-6.4892,-6.4943,-6.4905,-6.5129,-6.5057,-6.5069,-6.5073,-6.5138,-6.5162,-6.5184,-6.4895,-6.4893,-6.4892,0,0,-6.4593,-6.4616,-6.4704,-6.473,-6.4767,-6.4765,-6.4787,-6.4813,-6.4818,-6.4915,-6.4871,-6.493,-6.5031,-6.5057,-6.5084,-6.526,-6.5221,-6.5279,-6.5375,-6.5443,-6.5463,-6.5481,-6.5542,-6.5564,-6.5292,-6.5293,-6.5293,0,-6.4673,-6.4772,-6.4753,-6.4831,-6.4863,-6.4814,-6.4904,-6.493,-6.4982,-6.5006,-6.4963,-6.5091,-6.5111,-6.5232,-6.5275,-6.53,-6.5323,-6.5273,-6.5462,-6.548,-6.5496,-6.5554,-6.5577,-6.5299,-6.5299,-6.5298,-6.5297,0,-6.4869,-6.4939,-6.5007,-6.506,-6.5101,-6.5184,-6.5178,-6.5222,-6.5203,-6.5205,-6.5306,-6.5329,-6.5387,-6.5416,-6.5397,-6.5535,-6.551,-6.5466,-6.5387,-6.5528,-6.5582,-6.5604,-6.5309,-6.5306,-6.5304,-6.5303,0,0,-6.508,-6.5126,-6.515,-6.5175,-6.5215,-6.5268,-6.5351,-6.5409,-6.5447,-6.5487,-6.5554,-6.5644,-6.5604,-6.5635,-6.562,-6.568,-6.5816,-6.5627,-6.5628,-6.5659,-6.5969,-6.5999,-6.6025,-6.5793,-6.5797,-6.5801,-6.5965,0,-6.5238,-6.538,-6.5368,-6.5502,-6.5566,-6.5524,-6.5595,-6.5628,-6.5634,-6.569,-6.5697,-6.576,-6.5703,-6.5721,-6.5779,-6.5787,-6.5877,-6.5776,-6.5854,-6.5857,-6.5842,-6.6054,-6.6085,-6.6239,-6.5986,-6.599,-6.5992,0,-6.5439,-6.5488,-6.5629,-6.5662,-6.5688,-6.5753,-6.5807,-6.5861,-6.5898,-6.5899,-6.5936,-6.5912,-6.5995,-6.592,-6.6034,-6.5965,-6.5998,-6.6008,-6.6013,-6.6016,-6.593,-6.6059,-6.6288,-6.631,-6.6026,-6.6023,-6.6021,0,-6.5575,-6.5677,-6.5775,-6.5798,-6.5838,-6.5885,-6.5904,-6.5937,-6.5974,-6.6022,-6.6045,-6.6103,-6.6133,-6.6179,-6.6171,-6.6117,-6.6288,-6.6211,-6.6289,-6.6289,-6.6322,-6.6319,-6.6556,-6.635,-6.635,-6.6349,-6.6349,0,-6.575,-6.5838,-6.5837,-6.5896,-6.5994,-6.5981,-6.6078,-6.6091,-6.6122,-6.6184,-6.6152,-6.6211,-6.6199,-6.6258,-6.6253,-6.6348,-6.6363,-6.6365,-6.6362,-6.6365,-6.6365,-6.6382,-6.637,-6.6355,-6.6354,-6.6353,-6.6352,0,-6.5916,-6.5919,-6.6022,-6.6055,-6.6065,-6.6135,-6.6162,-6.6219,-6.6225,-6.6304,-6.6322,-6.6331,-6.6399,-6.6398,-6.6475,-6.6472,-6.6588,-6.6574,-6.6575,-6.6571,-6.6647,-6.6639,-6.69,-6.6933,-6.671,-6.6712,-6.6714,0,-6.6025,-6.6091,-6.6132,-6.6172,-6.6194,-6.6259,-6.6297,-6.6289,-6.633,-6.638,-6.6431,-6.6497,-6.6548,-6.666,-6.6673,-6.6733,-6.6718,-6.6806,-6.6726,-6.6728,-6.6716,-6.671,-6.6717,-6.6819,-6.6822,-6.6824,-6.6826,0,-6.6217,-6.6217,-6.6273,-6.6333,-6.638,-6.6426,-6.6468,-6.6502,-6.6499,-6.6547,-6.6617,-6.6658,-6.6739,-6.6804,-6.6863,-6.6882,-6.6853,-6.6852,-6.6872,-6.6874,-6.6871,-6.6871,-6.6613,-6.6844,-6.6842,-6.6841,-6.684,-6.6839,-6.6355,-6.6413,-6.6451,-6.6517,-6.6549,-6.659,-6.6645,-6.666,-6.6718,-6.6783,-6.6776,-6.6854,-6.6893,-6.6968,-6.6994,-6.7055,-6.7024,-6.7055,-6.7061,-6.7068,-6.7075,-6.6866,-6.7067,-6.7066,-6.7066,-6.7065,-6.7065,0,-6.6544,-6.6568,-6.6628,-6.6689,-6.6741,-6.6714,-6.676,-6.6805,-6.6874,-6.6914,-6.6966,-6.7048,-6.7113,-6.7134,-6.7196,-6.7242,-6.723,-6.7258,-6.7252,-6.7257,-6.7101,-6.7075,-6.7266,-6.7266,-6.7266,-6.7266,-6.7266,-6.7266,-6.6647,-6.6743,-6.6748,-6.686,-6.6884,-6.6961,-6.699,-6.7028,-6.7059,-6.7152,-6.7206,-6.722,-6.7253,-6.7318,-6.7377,-6.7381,-6.7405,-6.7437,-6.7436,-6.7289,-6.7268,-6.7249,-6.7224,-6.7444,-6.7444,-6.7587,-6.7588,-6.7589]},{"header":{"parameterUnit":"m.s-1","parameterCategory":1,"la1":30.2991,"la2":30.254,"lo1":-89.0895,"lo2":-89.0444,"dy":0.0017,"dx":0.0017,"nx":28,"ny":28,"refTime":"2023-10-24T09:00:00:Z","depth":0,"parameterNumber":3,"parameterNumberName":"V-component_of_WINDS"},"data":[0,0,0,0,0,0,0,0,0,0,0,0,0,0,0,0,0,0,0,0,0,0,0,0,0,0,0,0,0,0,0,0,0,0,0,0,0,0,0,0,0,0,0,0,0,0,0,0,0,0,0,0,0,0,0,0,0,0,1.8248,1.8248,0,1.8266,1.8266,1.8266,1.8254,1.8253,1.8252,1.8252,1.8267,1.8268,1.8269,0,0,0,0,0,0,0,0,0,0,0,0,0,1.8202,1.8203,1.8248,1.8248,1.8248,1.8266,1.8266,1.8266,1.8254,1.8253,1.8252,1.8252,1.8267,1.8268,1.8269,0,0,0,0,0,0,0,0,0,0,0,0,0,1.8221,1.8203,1.8248,1.8244,1.8244,1.8266,1.8266,1.8266,1.8254,1.8253,1.8252,1.8251,1.8266,1.8268,1.8269,1.8294,0,0,1.8273,1.8274,0,0,0,0,0,0,0,0,1.822,1.8223,1.8245,1.8245,1.8245,1.8257,1.8255,1.8275,1.8254,1.825,1.8252,1.8251,1.8264,1.8265,1.827,1.8294,1.8295,1.8273,1.8274,1.8275,1.8275,0,0,0,0,0,0,0,1.8219,1.8222,1.8255,1.8245,1.8245,1.8242,1.8243,1.8259,1.8261,1.825,1.8249,1.8252,1.8264,1.8269,1.8271,1.8295,1.8273,1.8274,1.8275,1.8276,1.8343,1.8344,0,0,0,0,0,0,1.8218,1.8221,1.8254,1.8255,1.823,1.8243,1.8245,1.8254,1.8261,1.8262,1.8253,1.8251,1.8267,1.8269,1.8271,1.8303,1.8275,1.8276,1.8277,1.8342,1.8344,1.8345,0,0,0,0,0,0,1.8217,1.8221,1.8254,1.8238,1.8242,1.8245,1.8254,1.8254,1.826,1.8263,1.8263,1.8258,1.8267,1.8269,1.8289,1.8303,1.8276,1.8278,1.8341,1.8343,1.8344,1.8365,0,0,0,0,0,0,1.8216,1.8221,1.823,1.8238,1.8243,1.8272,1.8255,1.8255,1.8263,1.8261,1.8268,1.8268,1.8266,1.8287,1.829,1.8304,1.8279,1.834,1.8342,1.8344,1.8363,1.8367,1.837,0,0,0,0,0,1.8214,1.8234,1.8231,1.8235,1.8255,1.8272,1.8275,1.8273,1.8264,1.8273,1.8276,1.8268,1.8301,1.8289,1.8293,1.8307,1.8339,1.8341,1.8344,1.8361,1.8366,1.837,0,0,0,0,0,0,1.8226,1.8235,1.8231,1.8255,1.8263,1.827,1.8282,1.8278,1.8288,1.8286,1.8283,1.8284,1.8306,1.8308,1.8295,1.8333,1.8319,1.8322,1.8331,1.8335,1.8339,1.8338,1.828,0,0,0,0,0,1.8231,1.8245,1.8252,1.8272,1.8277,1.8279,1.8286,1.8285,1.8293,1.8296,1.83,1.8307,1.832,1.8327,1.8339,1.8363,1.8365,1.8375,1.8379,1.8382,1.8385,1.84,1.8405,1.8352,1.8352,1.8352,0,0,1.8242,1.8249,1.8258,1.8275,1.8281,1.8296,1.8282,1.8297,1.8308,1.8298,1.8318,1.8321,1.8329,1.8352,1.8362,1.8355,1.84,1.8385,1.8387,1.8388,1.8403,1.8408,1.8412,1.8354,1.8353,1.8353,0,0,1.827,1.8276,1.8294,1.8302,1.8313,1.8314,1.8319,1.8328,1.833,1.835,1.8344,1.8356,1.8377,1.8384,1.839,1.8424,1.8418,1.8428,1.8446,1.8462,1.8466,1.847,1.8483,1.8488,1.843,1.843,1.843,0,1.8281,1.8304,1.8304,1.8321,1.8329,1.8323,1.8342,1.8349,1.8362,1.8368,1.836,1.8388,1.8392,1.8418,1.8427,1.8432,1.8437,1.8427,1.8465,1.8469,1.8473,1.8485,1.849,1.8432,1.8431,1.8431,1.8431,0,1.8319,1.8335,1.8349,1.8364,1.8374,1.8392,1.8394,1.8404,1.8403,1.8406,1.8427,1.8433,1.8447,1.8453,1.845,1.8479,1.8474,1.8466,1.8451,1.8479,1.8491,1.8496,1.8433,1.8433,1.8433,1.8432,0,0,1.8352,1.837,1.8375,1.8384,1.8396,1.8408,1.8427,1.8442,1.8451,1.8461,1.8477,1.8496,1.8489,1.8496,1.8495,1.8508,1.8537,1.8498,1.8498,1.8506,1.8571,1.8578,1.8583,1.8533,1.8534,1.8534,1.8571,0,1.8382,1.8415,1.8417,1.8447,1.8463,1.8459,1.8475,1.8484,1.8488,1.8502,1.8505,1.852,1.8509,1.8514,1.8527,1.853,1.855,1.8528,1.8548,1.8548,1.8546,1.8589,1.8596,1.863,1.8575,1.8576,1.8577,0,1.842,1.8434,1.8467,1.848,1.8487,1.8501,1.8517,1.853,1.8541,1.8543,1.8553,1.855,1.8569,1.8554,1.8581,1.8566,1.8574,1.8578,1.8579,1.8581,1.8564,1.8594,1.8641,1.8646,1.8584,1.8583,1.8583,0,1.8444,1.847,1.8494,1.8501,1.8516,1.8527,1.8534,1.8545,1.8555,1.8568,1.8574,1.8589,1.8597,1.8608,1.861,1.8599,1.8638,1.8622,1.864,1.864,1.8648,1.8648,1.8698,1.8652,1.8652,1.8652,1.8652,0,1.8477,1.8497,1.8505,1.8519,1.8543,1.8545,1.8567,1.8573,1.8583,1.8599,1.8595,1.861,1.8611,1.8626,1.8627,1.865,1.8653,1.8656,1.8656,1.8657,1.8656,1.8662,1.866,1.8654,1.8653,1.8653,1.8653,0,1.8506,1.8512,1.8538,1.8552,1.8556,1.8573,1.8584,1.8598,1.8603,1.8623,1.8628,1.8634,1.8652,1.8655,1.8675,1.8676,1.8704,1.8701,1.8701,1.8701,1.8719,1.8718,1.8776,1.8784,1.8732,1.8732,1.8733,0,1.8527,1.8543,1.856,1.8571,1.8579,1.8597,1.8608,1.8611,1.8623,1.8639,1.8651,1.8669,1.8684,1.8713,1.8719,1.8735,1.8733,1.8752,1.8735,1.8736,1.8735,1.8734,1.8737,1.8755,1.8756,1.8756,1.8757,0,1.8564,1.8568,1.8584,1.8603,1.8617,1.8631,1.8645,1.8654,1.8659,1.8672,1.8692,1.8703,1.8726,1.8744,1.8761,1.8767,1.8763,1.8762,1.8768,1.8769,1.8769,1.877,1.8711,1.8761,1.876,1.876,1.876,1.876,1.8591,1.8606,1.8622,1.8641,1.8652,1.8666,1.8681,1.8688,1.8705,1.8725,1.8726,1.8747,1.876,1.8783,1.879,1.8807,1.8801,1.8808,1.881,1.8812,1.8815,1.8766,1.881,1.881,1.881,1.881,1.881,0,1.8629,1.864,1.8658,1.8679,1.8694,1.8691,1.8707,1.872,1.874,1.8753,1.8769,1.8792,1.881,1.8819,1.8837,1.8849,1.8848,1.8854,1.8854,1.8856,1.8818,1.8813,1.8855,1.8855,1.8855,1.8855,1.8855,1.8855,1.8651,1.8678,1.8683,1.8715,1.8725,1.8748,1.8758,1.877,1.8781,1.8808,1.8825,1.8831,1.8843,1.8862,1.8879,1.8881,1.8889,1.8896,1.8897,1.8862,1.8858,1.8853,1.8848,1.8897,1.8897,1.8933,1.8933,1.8934]}]]